GW4386 Weather Reports


Display with metric or nautical units.
time (UTC)temp
F
wind
direction
speed
MPH
gust
MPH
rain 1hr
in
rain 24hr
in
rain mn
in
humidity
%
barometer
mb
20260510071603 60 204 3.0 7.0 0.00 0.00 0.00 49 1018.9
20260510071059 60 67 2.0 5.0 0.00 0.00 0.00 50 1019.1
20260510070600 59 147 1.0 5.0 0.00 0.00 0.00 53 1019.2
20260510070109 59 101 2.0 5.0 0.00 0.00 0.00 55 1019.3
20260510065558 58 128 1.0 6.0 0.00 0.00 0.00 58 1019.3
20260510065059 57 136 2.0 6.0 0.00 0.00 0.00 58 1019.4
20260510064602 57 40 2.0 6.0 0.00 0.00 0.00 59 1019.4
20260510064059 56 38 1.0 5.0 0.00 0.00 0.00 61 1019.4
20260510063559 56 62 1.0 4.0 0.00 0.00 0.00 62 1019.4
20260510063102 55 13 0.0 3.0 0.00 0.00 0.00 64 1019.5
20260510062559 54 54 0.0 3.0 0.00 0.00 0.00 65 1019.5
20260510062058 53 61 0.0 4.0 0.00 0.00 0.00 66 1019.5
20260510061558 53 24 2.0 5.0 0.00 0.00 0.00 67 1019.4
20260510061100 52 65 3.0 5.0 0.00 0.00 0.00 68 1019.4
20260510060601 52 55 3.0 5.0 0.00 0.00 0.00 68 1019.5
20260510055558 51 327 0.0 4.0 0.00 0.00 0.00 70 1019.7
20260510055058 50 43 0.0 4.0 0.00 0.00 0.00 71 1019.6
20260510054605 49 48 1.0 4.0 0.00 0.00 0.00 72 1019.6
20260510054057 48 50 0.0 3.0 0.00 0.00 0.00 73 1019.7
20260510053602 48 317 0.0 3.0 0.00 0.00 0.00 73 1019.6
20260510053059 47 50 0.0 3.0 0.00 0.00 0.00 74 1019.7
20260510052558 47 57 0.0 2.0 0.00 0.00 0.00 75 1019.7
20260510052059 46 65 0.0 3.0 0.00 0.00 0.00 77 1019.8
20260510051558 45 113 0.0 3.0 0.00 0.00 0.00 78 1019.8
20260510051100 45 44 0.0 2.0 0.00 0.00 0.00 78 1019.9
20260510050558 44 34 0.0 2.0 0.00 0.00 0.00 79 1019.9
20260510050100 43 46 0.0 1.0 0.00 0.00 0.00 80 1019.9
20260510045601 43 52 0.0 3.0 0.00 0.00 0.00 82 1019.9
20260510045103 42 43 0.0 3.0 0.00 0.00 0.00 83 1019.8
20260510044611 41 48 0.0 3.0 0.00 0.00 0.00 84 1019.9
20260510044100 40 59 1.0 3.0 0.00 0.00 0.00 85 1019.9
20260510043559 39 65 0.0 3.0 0.00 0.00 0.00 86 1020.1
20260510043106 38 199 0.0 0.0 0.00 0.00 0.00 87 1020.2
20260510042558 38 163 0.0 3.0 0.00 0.00 0.00 87 1020.3
20260510042102 37 299 0.0 4.0 0.00 0.00 0.00 88 1020.2
20260510041600 37 57 2.0 4.0 0.00 0.00 0.00 88 1020.2
20260510041059 36 65 1.0 3.0 0.00 0.00 0.00 88 1020.3
20260510040558 36 73 1.0 3.0 0.00 0.00 0.00 88 1020.4
20260510040058 36 57 1.0 3.0 0.00 0.00 0.00 88 1020.5
20260510035558 35 73 0.0 2.0 0.00 0.00 0.00 88 1020.6
20260510035059 35 70 0.0 1.0 0.00 0.00 0.00 88 1020.6
20260510034558 35 103 0.0 1.0 0.00 0.00 0.00 88 1020.6
20260510034058 34 78 0.0 1.0 0.00 0.00 0.00 88 1020.6
20260510033602 34 360 0.0 1.0 0.00 0.00 0.00 88 1020.6
20260510033126 34 55 0.0 1.0 0.00 0.00 0.00 88 1020.6
20260510032600 34 360 0.0 1.0 0.00 0.00 0.00 88 1020.6
20260510032058 34 61 0.0 1.0 0.00 0.00 0.00 88 1020.6
20260510031622 34 67 0.0 1.0 0.00 0.00 0.00 88 1020.6
20260510031058 34 54 0.0 1.0 0.00 0.00 0.00 88 1020.6
20260510030558 34 105 0.0 1.0 0.00 0.00 0.00 88 1020.6
20260510025558 34 70 0.0 2.0 0.00 0.00 0.00 88 1020.6
20260510025100 34 67 0.0 2.0 0.00 0.00 0.00 88 1020.6
20260510024558 34 64 0.0 2.0 0.00 0.00 0.00 88 1020.7
20260510024105 34 57 0.0 1.0 0.00 0.00 0.00 88 1020.8
20260510023558 34 54 0.0 1.0 0.00 0.00 0.00 88 1020.8
20260510023100 34 91 0.0 2.0 0.00 0.00 0.00 87 1020.8
20260510022559 34 100 0.0 3.0 0.00 0.00 0.00 87 1020.8
20260510022101 34 63 1.0 3.0 0.00 0.00 0.00 87 1020.8
20260510021559 34 80 0.0 1.0 0.00 0.00 0.00 87 1020.9
20260510021100 34 71 0.0 3.0 0.00 0.00 0.00 87 1020.9
20260510020558 35 72 0.0 3.0 0.00 0.00 0.00 87 1020.9
20260510020058 35 76 0.0 3.0 0.00 0.00 0.00 87 1020.9
20260510015600 35 67 0.0 2.0 0.00 0.00 0.00 87 1021.0
20260510015059 35 66 0.0 2.0 0.00 0.00 0.00 86 1020.9
20260510014608 35 73 0.0 2.0 0.00 0.00 0.00 86 1021.0
20260510014058 35 64 0.0 3.0 0.00 0.00 0.00 86 1021.0
20260510013559 35 66 1.0 2.0 0.00 0.00 0.00 86 1021.0
20260510013058 36 85 0.0 1.0 0.00 0.00 0.00 86 1021.1
20260510012558 36 78 0.0 2.0 0.00 0.00 0.00 86 1021.0
20260510012059 36 77 0.0 3.0 0.00 0.00 0.00 86 1021.0
20260510011601 36 70 0.0 3.0 0.00 0.00 0.00 85 1021.0
20260510011101 36 78 0.0 2.0 0.00 0.00 0.00 85 1021.1
20260510010558 36 360 0.0 0.0 0.00 0.00 0.00 85 1021.1
20260510010104 36 59 0.0 1.0 0.00 0.00 0.00 85 1021.0
20260510005558 37 360 0.0 2.0 0.00 0.00 0.00 85 1021.1
20260510005058 37 78 0.0 2.0 0.00 0.00 0.00 85 1021.2
20260510004559 37 105 0.0 0.0 0.00 0.00 0.00 85 1021.2
20260510004058 37 313 0.0 0.0 0.00 0.00 0.00 84 1021.3
20260510003558 37 325 0.0 1.0 0.00 0.00 0.00 84 1021.2
20260510003104 37 180 0.0 1.0 0.00 0.00 0.00 84 1021.2
20260510002600 37 72 0.0 3.0 0.00 0.00 0.00 84 1021.1
20260510002501 37 57 0.0 3.0 0.00 0.00 0.00 84 1021.1
20260510002057 37 63 1.0 3.0 0.00 0.00 0.00 84 1021.2
20260510001600 38 94 1.0 3.0 0.00 0.00 0.00 83 1021.2
20260510001059 38 59 0.0 2.0 0.00 0.00 0.00 83 1021.2
20260510000601 38 75 1.0 3.0 0.00 0.00 0.00 82 1021.3
20260510000059 38 61 1.0 3.0 0.00 0.00 0.00 82 1021.3
20260509235559 39 314 0.0 3.0 0.00 0.00 0.00 82 1021.3
20260509235057 38 308 0.0 3.0 0.00 0.00 0.00 82 1021.4
20260509234608 39 57 0.0 2.0 0.00 0.00 0.00 81 1021.4
20260509234057 39 82 0.0 3.0 0.00 0.00 0.00 80 1021.5
20260509233601 39 73 0.0 3.0 0.00 0.00 0.00 81 1021.4
20260509233058 39 340 0.0 2.0 0.00 0.00 0.00 81 1021.4
20260509232557 39 62 0.0 2.0 0.00 0.00 0.00 81 1021.6
20260509232058 39 360 0.0 3.0 0.00 0.00 0.00 81 1021.6
20260509231558 39 73 1.0 3.0 0.00 0.00 0.00 80 1021.7
20260509231058 39 55 2.0 3.0 0.00 0.00 0.00 79 1021.7
20260509230557 39 63 0.0 3.0 0.00 0.00 0.00 79 1021.7
20260509230106 40 51 0.0 3.0 0.00 0.00 0.00 79 1021.7
20260509225600 40 80 0.0 3.0 0.00 0.00 0.00 78 1021.7
20260509225058 40 72 0.0 3.0 0.00 0.00 0.00 78 1021.8
20260509224559 40 92 0.0 2.0 0.00 0.00 0.00 78 1021.8
20260509224059 40 78 0.0 2.0 0.00 0.00 0.00 77 1021.8
20260509223600 41 65 0.0 1.0 0.00 0.00 0.00 77 1021.8
20260509223101 41 140 0.0 1.0 0.00 0.00 0.00 77 1021.9
20260509222602 41 76 0.0 0.0 0.00 0.00 0.00 76 1021.8
20260509222059 41 41 0.0 1.0 0.00 0.00 0.00 76 1021.9
20260509221601 41 82 0.0 1.0 0.00 0.00 0.00 75 1021.9
20260509221059 41 71 0.0 1.0 0.00 0.00 0.00 75 1021.8
20260509220601 41 69 0.0 2.0 0.00 0.00 0.00 74 1021.8
20260509220105 42 70 0.0 2.0 0.00 0.00 0.00 73 1021.9
20260509215559 42 78 0.0 2.0 0.00 0.00 0.00 73 1021.9
20260509215501 42 82 0.0 2.0 0.00 0.00 0.00 73 1021.9
20260509215100 42 70 1.0 2.0 0.00 0.00 0.00 73 1021.9
20260509214559 43 68 0.0 3.0 0.00 0.00 0.00 72 1021.9
20260509214059 43 74 0.0 3.0 0.00 0.00 0.00 72 1021.9
20260509213559 43 65 0.0 2.0 0.00 0.00 0.00 72 1021.9
20260509213106 44 56 0.0 3.0 0.00 0.00 0.00 71 1022.0
20260509212559 44 65 0.0 3.0 0.00 0.00 0.00 70 1022.0
20260509212059 44 65 0.0 1.0 0.00 0.00 0.00 70 1022.0
20260509211606 45 351 0.0 1.0 0.00 0.00 0.00 69 1022.0
20260509211059 45 129 0.0 1.0 0.00 0.00 0.00 67 1022.0
20260509210600 45 98 0.0 1.0 0.00 0.00 0.00 66 1022.0
20260509205600 46 320 0.0 2.0 0.00 0.00 0.00 65 1022.0
20260509205104 46 34 0.0 0.0 0.00 0.00 0.00 65 1022.0
20260509204605 47 105 0.0 1.0 0.00 0.00 0.00 63 1022.0
20260509204100 47 302 0.0 2.0 0.00 0.00 0.00 61 1022.0
20260509203600 48 313 0.0 2.0 0.00 0.00 0.00 59 1022.0
20260509203102 48 283 0.0 2.0 0.00 0.00 0.00 59 1022.0
20260509202600 49 312 0.0 3.0 0.00 0.00 0.00 58 1022.0
20260509202059 49 312 0.0 2.0 0.00 0.00 0.00 57 1022.0
20260509201601 49 306 0.0 3.0 0.00 0.00 0.00 57 1022.0
20260509201100 50 320 0.0 3.0 0.00 0.00 0.00 55 1022.0
20260509200600 51 340 0.0 3.0 0.00 0.00 0.00 53 1021.9
20260509200100 51 298 1.0 3.0 0.00 0.00 0.00 53 1022.0
20260509200002 51 312 0.0 3.0 0.00 0.00 0.00 53 1021.9
20260509195600 51 115 0.0 1.0 0.00 0.00 0.00 54 1021.9
20260509195059 52 70 0.0 2.0 0.00 0.00 0.00 53 1021.9
20260509194602 52 74 0.0 3.0 0.00 0.00 0.00 51 1021.9
20260509194101 53 47 0.0 3.0 0.00 0.00 0.00 50 1021.9
20260509193559 53 61 1.0 4.0 0.00 0.00 0.00 49 1021.8
20260509193101 53 67 1.0 6.0 0.00 0.00 0.00 50 1021.8
20260509192602 54 57 1.0 6.0 0.00 0.00 0.00 50 1021.8
20260509192059 54 77 3.0 6.0 0.00 0.00 0.00 50 1021.8
20260509191611 54 44 0.0 4.0 0.00 0.00 0.00 51 1021.8
20260509191100 54 59 1.0 5.0 0.00 0.00 0.00 50 1021.7
20260509190559 54 67 1.0 5.0 0.00 0.00 0.00 49 1021.7
20260509190106 55 55 1.0 4.0 0.00 0.00 0.00 48 1021.7
20260509190003 55 57 1.0 4.0 0.00 0.00 0.00 48 1021.6
20260509185601 55 38 1.0 4.0 0.00 0.00 0.00 48 1021.6
20260509185059 55 72 1.0 5.0 0.00 0.00 0.00 47 1021.6
20260509184600 56 57 2.0 7.0 0.00 0.00 0.00 46 1021.5
20260509184058 57 61 0.0 7.0 0.00 0.00 0.00 44 1021.5
20260509183600 57 71 1.0 4.0 0.00 0.00 0.00 43 1021.4
20260509183059 58 63 2.0 6.0 0.00 0.00 0.00 42 1021.5
20260509182604 58 64 2.0 9.0 0.00 0.00 0.00 41 1021.4
20260509182059 58 53 3.0 9.0 0.00 0.00 0.00 41 1021.4
20260509181605 58 59 2.0 7.0 0.00 0.00 0.00 41 1021.3
20260509181100 59 44 4.0 11.0 0.00 0.00 0.00 41 1021.3
20260509180558 59 69 5.0 11.0 0.00 0.00 0.00 40 1021.3
20260509180100 59 54 3.0 9.0 0.00 0.00 0.00 40 1021.2
20260509175600 60 56 4.0 9.0 0.00 0.00 0.00 40 1021.2
20260509175100 60 71 3.0 10.0 0.00 0.00 0.00 40 1021.2
20260509174606 61 67 4.0 11.0 0.00 0.00 0.00 39 1021.1
20260509174100 61 69 4.0 13.0 0.00 0.00 0.00 38 1021.1
20260509173600 61 55 6.0 14.0 0.00 0.00 0.00 37 1021.1
20260509173117 62 55 6.0 14.0 0.00 0.00 0.00 37 1021.0
20260509172601 63 57 8.0 14.0 0.00 0.00 0.00 36 1020.9
20260509172059 63 64 4.0 10.0 0.00 0.00 0.00 36 1020.9
20260509172005 64 43 5.0 10.0 0.00 0.00 0.00 36 1020.9
20260509171605 64 57 4.0 10.0 0.00 0.00 0.00 36 1020.9
20260509171058 64 94 4.0 10.0 0.00 0.00 0.00 35 1020.8
20260509170603 65 112 3.0 12.0 0.00 0.00 0.00 35 1020.9
20260509170059 65 32 7.0 12.0 0.00 0.00 0.00 34 1020.8
20260509165559 65 101 3.0 10.0 0.00 0.00 0.00 33 1020.8
20260509165102 66 76 4.0 10.0 0.00 0.00 0.00 32 1020.7
20260509164600 67 57 3.0 8.0 0.00 0.00 0.00 31 1020.7
20260509164101 67 55 3.0 10.0 0.00 0.00 0.00 31 1020.8
20260509163604 67 66 4.0 10.0 0.00 0.00 0.00 31 1020.8
20260509163108 67 59 4.0 10.0 0.00 0.00 0.00 30 1020.7
20260509162559 67 324 4.0 8.0 0.00 0.00 0.00 30 1020.8
20260509162059 67 11 2.0 8.0 0.00 0.00 0.00 30 1020.7
20260509161606 67 336 3.0 9.0 0.00 0.00 0.00 30 1020.8
20260509161059 68 48 4.0 9.0 0.00 0.00 0.00 30 1020.8
20260509160559 68 88 4.0 9.0 0.00 0.00 0.00 29 1020.8
20260509160101 68 46 2.0 9.0 0.00 0.00 0.00 31 1020.8
20260509160002 68 48 1.0 9.0 0.00 0.00 0.00 32 1020.9
20260509155558 68 338 1.0 9.0 0.00 0.00 0.00 31 1020.9
20260509155103 69 75 4.0 9.0 0.00 0.00 0.00 30 1020.9
20260509154614 69 305 1.0 9.0 0.00 0.00 0.00 32 1020.9
20260509154101 69 349 3.0 8.0 0.00 0.00 0.00 32 1021.0
20260509153602 68 325 1.0 12.0 0.00 0.00 0.00 32 1021.0
20260509153059 68 53 3.0 12.0 0.00 0.00 0.00 31 1021.0
20260509152604 68 288 1.0 6.0 0.00 0.00 0.00 31 1020.9
20260509152059 66 246 0.0 6.0 0.00 0.00 0.00 32 1021.0
20260509151601 65 202 1.0 4.0 0.00 0.00 0.00 34 1021.0
20260509151058 65 235 1.0 4.0 0.00 0.00 0.00 34 1021.1
20260509150600 66 297 1.0 5.0 0.00 0.00 0.00 32 1021.2
20260509150100 66 29 2.0 8.0 0.00 0.00 0.00 31 1021.2
20260509150001 66 48 0.0 8.0 0.00 0.00 0.00 31 1021.2
20260509145559 67 319 4.0 11.0 0.00 0.00 0.00 30 1021.2
20260509145100 67 25 5.0 11.0 0.00 0.00 0.00 31 1021.2
20260509144612 69 41 2.0 9.0 0.00 0.00 0.00 30 1021.2
20260509144059 69 38 3.0 10.0 0.00 0.00 0.00 30 1021.2
20260509143559 69 71 5.0 10.0 0.00 0.00 0.00 31 1021.2
20260509143059 69 55 4.0 10.0 0.00 0.00 0.00 31 1021.2
20260509142558 70 57 3.0 9.0 0.00 0.00 0.00 31 1021.2
20260509142102 69 54 3.0 9.0 0.00 0.00 0.00 31 1021.3
20260509141559 68 68 5.0 10.0 0.00 0.00 0.00 31 1021.3
20260509141100 68 17 1.0 10.0 0.00 0.00 0.00 32 1021.3
20260509140559 67 57 2.0 10.0 0.00 0.00 0.00 33 1021.5
20260509140116 68 46 7.0 10.0 0.00 0.00 0.00 32 1021.5
20260509140002 68 38 5.0 10.0 0.00 0.00 0.00 33 1021.5
20260509135601 68 313 5.0 10.0 0.00 0.00 0.00 34 1021.6
20260509135059 68 254 2.0 9.0 0.00 0.00 0.00 34 1021.6
20260509134559 68 142 2.0 7.0 0.00 0.00 0.00 35 1021.6
20260509134059 67 294 4.0 7.0 0.00 0.00 0.00 36 1021.6
20260509133559 67 144 2.0 9.0 0.00 0.00 0.00 36 1021.6
20260509133105 64 44 2.0 9.0 0.00 0.00 0.00 39 1021.7
20260509133002 64 292 2.0 9.0 0.00 0.00 0.00 39 1021.7
20260509132559 64 29 4.0 9.0 0.00 0.00 0.00 38 1021.8
20260509132100 65 39 0.0 5.0 0.00 0.00 0.00 37 1021.9
20260509131602 66 22 2.0 8.0 0.00 0.00 0.00 36 1021.9
20260509131103 66 32 3.0 11.0 0.00 0.00 0.00 35 1021.9
20260509130600 67 36 4.0 10.0 0.00 0.00 0.00 36 1021.8
20260509130108 65 17 2.0 10.0 0.00 0.00 0.00 38 1021.9
20260509125600 65 294 4.0 10.0 0.00 0.00 0.00 39 1022.0
20260509125059 64 244 1.0 8.0 0.00 0.00 0.00 43 1022.1
20260509124616 64 27 2.0 11.0 0.00 0.00 0.00 42 1022.1
20260509124059 65 318 3.0 12.0 0.00 0.00 0.00 41 1022.2
20260509123600 66 298 4.0 12.0 0.00 0.00 0.00 39 1022.2
20260509123100 68 47 3.0 8.0 0.00 0.00 0.00 35 1022.2
20260509122600 66 325 1.0 12.0 0.00 0.00 0.00 37 1022.2
20260509122102 65 68 6.0 12.0 0.00 0.00 0.00 39 1022.3
20260509121616 63 26 4.0 11.0 0.00 0.00 0.00 41 1022.4
20260509121059 64 34 6.0 12.0 0.00 0.00 0.00 42 1022.4
20260509120559 63 321 2.0 14.0 0.00 0.00 0.00 41 1022.4
20260509120057 64 304 5.0 14.0 0.00 0.00 0.00 40 1022.4
20260509115600 64 179 6.0 10.0 0.00 0.00 0.00 41 1022.4
20260509115102 64 223 1.0 4.0 0.00 0.00 0.00 42 1022.5
20260509114602 63 214 1.0 11.0 0.00 0.00 0.00 44 1022.5
20260509114100 63 325 3.0 12.0 0.00 0.00 0.00 43 1022.6
20260509113559 65 69 5.0 12.0 0.00 0.00 0.00 40 1022.6
20260509113102 67 28 7.0 12.0 0.00 0.00 0.00 40 1022.6
20260509112601 65 107 1.0 4.0 0.00 0.00 0.00 42 1022.6
20260509112059 64 103 1.0 5.0 0.00 0.00 0.00 44 1022.7
20260509111607 62 57 1.0 6.0 0.00 0.00 0.00 47 1022.8
20260509111059 62 13 3.0 11.0 0.00 0.00 0.00 46 1022.8
20260509110559 62 13 4.0 11.0 0.00 0.00 0.00 46 1022.8
20260509110100 61 76 1.0 8.0 0.00 0.00 0.00 46 1022.8
20260509110001 62 311 2.0 8.0 0.00 0.00 0.00 45 1022.8
20260509105559 63 333 2.0 11.0 0.00 0.00 0.00 46 1022.8
20260509105059 62 30 5.0 14.0 0.00 0.00 0.00 45 1022.9
20260509104559 63 327 7.0 14.0 0.00 0.00 0.00 44 1022.8
20260509104059 65 313 3.0 13.0 0.00 0.00 0.00 43 1022.8
20260509103603 65 332 7.0 13.0 0.00 0.00 0.00 42 1022.9
20260509103104 66 92 3.0 10.0 0.00 0.00 0.00 43 1022.9
20260509102604 65 66 2.0 11.0 0.00 0.00 0.00 45 1023.0
20260509102100 65 115 5.0 10.0 0.00 0.00 0.00 43 1023.0
20260509101600 64 209 6.0 12.0 0.00 0.00 0.00 44 1023.1
20260509101059 63 177 6.0 12.0 0.00 0.00 0.00 45 1023.2
20260509100559 62 129 2.0 10.0 0.00 0.00 0.00 49 1023.3
20260509095600 60 34 7.0 14.0 0.00 0.00 0.00 50 1023.4
20260509095059 60 44 7.0 14.0 0.00 0.00 0.00 50 1023.4
20260509094558 61 52 4.0 11.0 0.00 0.00 0.00 48 1023.4
20260509094058 62 5 5.0 11.0 0.00 0.00 0.00 46 1023.4
20260509093558 62 98 5.0 11.0 0.00 0.00 0.00 50 1023.4
20260509093059 61 146 5.0 11.0 0.00 0.00 0.00 49 1023.4
20260509092600 61 92 5.0 11.0 0.00 0.00 0.00 48 1023.4
20260509092058 62 126 5.0 11.0 0.00 0.00 0.00 49 1023.4
20260509091559 61 62 3.0 10.0 0.00 0.00 0.00 51 1023.4
20260509091058 60 64 1.0 12.0 0.00 0.00 0.00 52 1023.4
20260509090559 61 34 5.0 16.0 0.00 0.00 0.00 51 1023.4
20260509090108 62 45 5.0 10.0 0.00 0.00 0.00 50 1023.4
20260509085558 62 350 4.0 10.0 0.00 0.00 0.00 50 1023.4
20260509085059 62 78 5.0 10.0 0.00 0.00 0.00 52 1023.4
20260509084603 61 132 4.0 10.0 0.00 0.00 0.00 52 1023.4
20260509084058 61 128 6.0 10.0 0.00 0.00 0.00 52 1023.5
20260509083557 61 17 4.0 9.0 0.00 0.00 0.00 52 1023.5
20260509083101 60 188 2.0 8.0 0.00 0.00 0.00 54 1023.5
20260509082600 59 87 2.0 7.0 0.00 0.00 0.00 58 1023.5
20260509082103 58 147 3.0 8.0 0.00 0.00 0.00 59 1023.6
20260509081558 58 309 0.0 9.0 0.00 0.00 0.00 59 1023.6
20260509081058 58 93 3.0 13.0 0.00 0.00 0.00 59 1023.7
20260509080559 58 57 6.0 14.0 0.00 0.00 0.00 59 1023.7
20260509080002 58 63 6.0 12.0 0.00 0.00 0.00 57 1023.7
20260509075559 57 146 1.0 14.0 0.00 0.00 0.00 59 1023.7
20260509075104 57 51 7.0 14.0 0.00 0.00 0.00 60 1023.7
20260509074602 57 33 7.0 12.0 0.00 0.00 0.00 61 1023.7
20260509074059 57 61 3.0 10.0 0.00 0.00 0.00 61 1023.8
20260509073558 57 68 5.0 11.0 0.00 0.00 0.00 60 1023.8
20260509073059 57 59 6.0 11.0 0.00 0.00 0.00 60 1023.8
20260509072602 57 53 5.0 10.0 0.00 0.00 0.00 62 1023.8
20260509072058 56 193 3.0 13.0 0.00 0.00 0.00 63 1023.9